Location: Bay Ridge
(40.6340°N, 74.0146°W)
Time: 14:43:24
(UTC+00:00)

NOSS 3-3 (C) - Pass Details

Date: 15 November 2019
Orbit: 844 x 1368 km, 63.4° (Epoch: 30 November)

Event Time Altitude Azimuth Distance (km) Brightness Sun altitude
Exits shadow 09:51:16 20° 221° (SW) 1,921 5.2 -21.1°
Maximum altitude 09:55:27 78° 305° (NW) 955 3.8 -20.3°
Drops below altitude 10° 10:01:58 10° 32° (NNE) 2,808 6.7 -19.1°
Sets 10:04:45 0° 34° (NE) 3,843 7.5 -18.6°
